Time,TemperatureF,DewpointF,PressureIn,WindDirection,WindDirectionDegrees,WindSpeedMPH,WindSpeedGustMPH,Humidity,HourlyPrecipIn,Conditions,Clouds,dailyrainin,SoftwareType,DateUTC
2013-02-26 00:05:00,60.5,59.4,29.99,WSW,251,11.0,12.0,96,0.00,,,0.00,Wunderground v.1.15,2013-02-25 22:05:00,
2013-02-26 00:15:00,60.5,59.4,30.00,WSW,252,6.0,13.0,96,0.00,,,0.00,Wunderground v.1.15,2013-02-25 22:15:00,
2013-02-26 00:20:00,60.5,59.4,29.99,WSW,252,9.0,17.0,96,0.00,,,0.00,Wunderground v.1.15,2013-02-25 22:20:00,
2013-02-26 00:30:00,60.5,59.4,29.99,WSW,248,14.0,14.0,96,0.00,,,0.00,Wunderground v.1.15,2013-02-25 22:30:00,
2013-02-26 00:35:00,60.5,59.4,29.99,WSW,254,14.0,16.0,96,0.00,,,0.00,Wunderground v.1.15,2013-02-25 22:35:00,
2013-02-26 00:40:00,60.5,59.4,29.99,WSW,239,13.0,17.0,96,0.00,,,0.00,Wunderground v.1.15,2013-02-25 22:40:00,
2013-02-26 00:45:00,60.5,59.1,29.99,WSW,240,13.0,17.0,95,0.00,,,0.00,Wunderground v.1.15,2013-02-25 22:45:00,
2013-02-26 00:50:00,60.5,59.4,29.98,WSW,240,13.0,13.0,96,0.00,,,0.00,Wunderground v.1.15,2013-02-25 22:50:00,
2013-02-26 00:55:00,60.5,59.4,29.98,West,269,12.0,13.0,96,0.00,,,0.00,Wunderground v.1.15,2013-02-25 22:55:00,
2013-02-26 01:05:00,60.5,59.1,29.98,West,259,10.0,25.0,95,0.00,,,0.00,Wunderground v.1.15,2013-02-25 23:05:00,
2013-02-26 01:10:00,60.5,59.1,29.97,SW,232,9.0,9.0,95,0.00,,,0.00,Wunderground v.1.15,2013-02-25 23:10:00,
2013-02-26 01:15:00,60.5,59.1,29.97,WSW,245,10.0,17.0,95,0.00,,,0.00,Wunderground v.1.15,2013-02-25 23:15:00,
2013-02-26 01:20:00,60.5,59.1,29.98,WSW,248,11.0,11.0,95,0.00,,,0.00,Wunderground v.1.15,2013-02-25 23:20:00,
2013-02-26 01:25:00,60.5,59.1,29.97,West,271,12.0,14.0,95,0.00,,,0.00,Wunderground v.1.15,2013-02-25 23:25:00,
2013-02-26 01:35:00,60.5,59.1,29.97,WSW,241,13.0,25.0,95,0.00,,,0.00,Wunderground v.1.15,2013-02-25 23:35:00,
2013-02-26 01:40:00,60.5,59.1,29.97,West,263,11.0,25.0,95,0.00,,,0.00,Wunderground v.1.15,2013-02-25 23:40:00,
2013-02-26 01:45:00,60.5,59.1,29.97,West,275,10.0,25.0,95,0.00,,,0.00,Wunderground v.1.15,2013-02-25 23:45:00,
2013-02-26 01:50:00,60.5,59.1,29.97,West,265,10.0,25.0,95,0.00,,,0.00,Wunderground v.1.15,2013-02-25 23:50:00,
2013-02-26 01:55:00,60.5,59.1,29.97,WSW,254,12.0,25.0,95,0.00,,,0.00,Wunderground v.1.15,2013-02-25 23:55:00,
2013-02-26 02:00:00,60.5,59.1,29.97,WSW,237,11.0,25.0,95,0.00,,,0.00,Wunderground v.1.15,2013-02-26 00:00:00,
2013-02-26 02:10:00,60.5,59.1,29.97,West,265,11.0,25.0,95,0.00,,,0.00,Wunderground v.1.15,2013-02-26 00:10:00,
2013-02-26 02:15:00,60.5,59.1,29.97,West,272,12.0,25.0,95,0.00,,,0.00,Wunderground v.1.15,2013-02-26 00:15:00,
2013-02-26 02:20:00,60.5,59.1,29.97,WNW,283,13.0,13.0,95,0.00,,,0.00,Wunderground v.1.15,2013-02-26 00:20:00,
2013-02-26 02:25:00,60.5,59.1,29.97,West,261,14.0,14.0,95,0.00,,,0.00,Wunderground v.1.15,2013-02-26 00:25:00,
2013-02-26 02:30:00,60.5,59.1,29.96,West,267,15.0,15.0,95,0.00,,,0.00,Wunderground v.1.15,2013-02-26 00:30:00,
2013-02-26 02:40:00,60.5,59.1,29.97,WNW,288,14.0,25.0,95,0.00,,,0.00,Wunderground v.1.15,2013-02-26 00:40:00,
2013-02-26 02:45:00,60.5,59.1,29.97,WNW,296,12.0,25.0,95,0.00,,,0.00,Wunderground v.1.15,2013-02-26 00:45:00,
2013-02-26 02:50:00,60.5,59.1,29.97,WNW,287,9.0,25.0,95,0.00,,,0.00,Wunderground v.1.15,2013-02-26 00:50:00,
2013-02-26 02:55:00,60.5,59.1,29.97,WSW,257,7.0,25.0,95,0.00,,,0.00,Wunderground v.1.15,2013-02-26 00:55:00,
2013-02-26 03:00:00,60.5,59.1,29.97,West,261,5.0,25.0,95,0.00,,,0.00,Wunderground v.1.15,2013-02-26 01:00:00,
2013-02-26 03:05:00,60.5,59.1,29.97,WSW,248,4.0,25.0,95,0.00,,,0.00,Wunderground v.1.15,2013-02-26 01:05:00,
2013-02-26 03:15:00,60.5,59.1,29.97,West,267,4.0,25.0,95,0.00,,,0.00,Wunderground v.1.15,2013-02-26 01:15:00,
2013-02-26 03:20:00,60.5,59.1,29.97,WSW,247,4.0,25.0,95,0.00,,,0.00,Wunderground v.1.15,2013-02-26 01:20:00,
2013-02-26 03:25:00,60.5,59.1,29.97,WNW,291,5.0,25.0,95,0.00,,,0.00,Wunderground v.1.15,2013-02-26 01:25:00,
2013-02-26 03:30:00,60.5,59.1,29.97,West,275,6.0,25.0,95,0.00,,,0.00,Wunderground v.1.15,2013-02-26 01:30:00,
2013-02-26 03:35:00,60.5,59.9,29.97,West,273,8.0,25.0,98,0.00,,,0.00,Wunderground v.1.15,2013-02-26 01:35:00,
2013-02-26 03:45:00,60.4,59.0,29.97,West,279,6.0,25.0,95,0.00,,,0.00,Wunderground v.1.15,2013-02-26 01:45:00,
2013-02-26 03:50:00,60.3,58.9,29.97,WNW,287,5.0,5.0,95,0.00,,,0.00,Wunderground v.1.15,2013-02-26 01:50:00,
2013-02-26 03:55:00,60.3,58.9,29.97,West,265,5.0,9.0,95,0.00,,,0.00,Wunderground v.1.15,2013-02-26 01:55:00,
2013-02-26 04:00:00,60.3,59.2,29.97,SW,230,5.0,25.0,96,0.00,,,0.00,Wunderground v.1.15,2013-02-26 02:00:00,
2013-02-26 04:05:00,60.2,59.1,29.97,West,273,7.0,25.0,96,0.00,,,0.00,Wunderground v.1.15,2013-02-26 02:05:00,
2013-02-26 04:10:00,60.2,59.1,29.97,WNW,298,6.0,6.0,96,0.00,,,0.00,Wunderground v.1.15,2013-02-26 02:10:00,
2013-02-26 04:15:00,60.2,59.1,29.97,West,277,5.0,10.0,96,0.00,,,0.00,Wunderground v.1.15,2013-02-26 02:15:00,
2013-02-26 04:25:00,60.0,58.9,29.96,WSW,245,6.0,10.0,96,0.00,,,0.00,Wunderground v.1.15,2013-02-26 02:25:00,
2013-02-26 04:30:00,59.7,58.6,29.97,West,264,9.0,9.0,96,0.00,,,0.00,Wunderground v.1.15,2013-02-26 02:30:00,
2013-02-26 04:35:00,59.5,58.4,29.96,West,278,10.0,10.0,96,0.00,,,0.00,Wunderground v.1.15,2013-02-26 02:35:00,
2013-02-26 04:40:00,59.3,58.2,29.96,WSW,253,7.0,25.0,96,0.00,,,0.00,Wunderground v.1.15,2013-02-26 02:40:00,
2013-02-26 04:45:00,59.3,57.9,29.96,SW,218,7.0,25.0,95,0.00,,,0.00,Wunderground v.1.15,2013-02-26 02:45:00,
2013-02-26 04:50:00,59.2,57.8,29.96,West,267,10.0,25.0,95,0.00,,,0.00,Wunderground v.1.15,2013-02-26 02:50:00,
2013-02-26 04:55:00,59.3,57.9,29.97,West,267,12.0,25.0,95,0.00,,,0.00,Wunderground v.1.15,2013-02-26 02:55:00,
2013-02-26 05:00:00,59.3,57.9,29.97,WSW,245,10.0,10.0,95,0.00,,,0.00,Wunderground v.1.15,2013-02-26 03:00:00,
2013-02-26 05:05:00,59.4,58.0,29.97,West,264,9.0,25.0,95,0.00,,,0.00,Wunderground v.1.15,2013-02-26 03:05:00,
2013-02-26 05:10:00,59.4,58.0,29.98,WSW,253,8.0,25.0,95,0.00,,,0.00,Wunderground v.1.15,2013-02-26 03:10:00,
2013-02-26 05:20:00,59.5,57.8,29.97,West,263,8.0,25.0,94,0.00,,,0.00,Wunderground v.1.15,2013-02-26 03:20:00,
2013-02-26 05:25:00,59.5,57.8,29.97,West,269,9.0,25.0,94,0.00,,,0.00,Wunderground v.1.15,2013-02-26 03:25:00,
2013-02-26 05:30:00,59.5,57.8,29.97,SW,227,9.0,25.0,94,0.00,,,0.00,Wunderground v.1.15,2013-02-26 03:30:00,
2013-02-26 05:35:00,59.5,57.8,29.97,West,271,9.0,25.0,94,0.00,,,0.00,Wunderground v.1.15,2013-02-26 03:35:00,
2013-02-26 05:40:00,59.5,57.8,29.97,WSW,252,8.0,8.0,94,0.00,,,0.00,Wunderground v.1.15,2013-02-26 03:40:00,
2013-02-26 05:45:00,59.5,57.8,29.97,WNW,288,7.0,25.0,94,0.00,,,0.00,Wunderground v.1.15,2013-02-26 03:45:00,
2013-02-26 05:55:00,59.3,57.6,29.97,West,263,9.0,25.0,94,0.00,,,0.00,Wunderground v.1.15,2013-02-26 03:55:00,
2013-02-26 06:00:00,59.2,57.2,29.97,West,269,9.0,9.0,93,0.00,,,0.00,Wunderground v.1.15,2013-02-26 04:00:00,
2013-02-26 06:05:00,59.2,57.2,29.98,West,281,8.0,10.0,93,0.00,,,0.00,Wunderground v.1.15,2013-02-26 04:05:00,
2013-02-26 06:10:00,59.2,57.2,29.97,WSW,244,7.0,7.0,93,0.00,,,0.00,Wunderground v.1.15,2013-02-26 04:10:00,
2013-02-26 06:15:00,59.1,57.1,29.98,WNW,298,7.0,25.0,93,0.00,,,0.00,Wunderground v.1.15,2013-02-26 04:15:00,
2013-02-26 06:25:00,59.1,57.1,29.98,WNW,290,7.0,25.0,93,0.00,,,0.00,Wunderground v.1.15,2013-02-26 04:25:00,
2013-02-26 06:30:00,59.1,57.1,29.98,West,269,9.0,25.0,93,0.00,,,0.00,Wunderground v.1.15,2013-02-26 04:30:00,
2013-02-26 06:35:00,59.2,57.2,29.97,West,275,9.0,25.0,93,0.00,,,0.00,Wunderground v.1.15,2013-02-26 04:35:00,
2013-02-26 06:40:00,59.3,57.3,29.97,WNW,293,8.0,25.0,93,0.00,,,0.00,Wunderground v.1.15,2013-02-26 04:40:00,
2013-02-26 06:45:00,59.3,57.3,29.97,WSW,245,7.0,25.0,93,0.00,,,0.00,Wunderground v.1.15,2013-02-26 04:45:00,
2013-02-26 06:50:00,59.3,57.3,29.97,West,261,6.0,25.0,93,0.00,,,0.00,Wunderground v.1.15,2013-02-26 04:50:00,
2013-02-26 07:00:00,59.4,57.4,29.98,West,264,5.0,5.0,93,0.00,,,0.00,Wunderground v.1.15,2013-02-26 05:00:00,
2013-02-26 07:05:00,59.3,57.3,29.98,West,260,4.0,25.0,93,0.00,,,0.00,Wunderground v.1.15,2013-02-26 05:05:00,
2013-02-26 07:10:00,59.3,57.3,29.98,West,272,4.0,25.0,93,0.00,,,0.00,Wunderground v.1.15,2013-02-26 05:10:00,
2013-02-26 07:15:00,59.3,57.3,29.98,West,259,4.0,25.0,93,0.00,,,0.00,Wunderground v.1.15,2013-02-26 05:15:00,
2013-02-26 07:20:00,59.3,57.3,29.98,West,269,4.0,25.0,93,0.00,,,0.00,Wunderground v.1.15,2013-02-26 05:20:00,
2013-02-26 07:30:00,59.2,57.2,29.98,WSW,254,2.0,25.0,93,0.00,,,0.00,Wunderground v.1.15,2013-02-26 05:30:00,
2013-02-26 07:35:00,59.3,57.3,29.99,West,260,3.0,25.0,93,0.00,,,0.00,Wunderground v.1.15,2013-02-26 05:35:00,
2013-02-26 07:40:00,59.3,57.6,29.99,WSW,250,3.0,25.0,94,0.00,,,0.00,Wunderground v.1.15,2013-02-26 05:40:00,
2013-02-26 07:45:00,59.3,57.6,29.99,West,259,3.0,25.0,94,0.00,,,0.00,Wunderground v.1.15,2013-02-26 05:45:00,
2013-02-26 07:50:00,59.5,57.8,29.99,West,259,4.0,4.0,94,0.00,,,0.00,Wunderground v.1.15,2013-02-26 05:50:00,
2013-02-26 07:55:00,59.6,57.9,29.99,West,267,3.0,25.0,94,0.00,,,0.00,Wunderground v.1.15,2013-02-26 05:55:00,
2013-02-26 08:05:00,59.9,58.2,29.99,West,263,2.0,25.0,94,0.00,,,0.00,Wunderground v.1.15,2013-02-26 06:05:00,
2013-02-26 08:10:00,60.0,58.3,29.99,West,263,1.0,1.0,94,0.00,,,0.00,Wunderground v.1.15,2013-02-26 06:10:00,
2013-02-26 08:15:00,60.2,58.5,30.00,West,263,0.0,25.0,94,0.00,,,0.00,Wunderground v.1.15,2013-02-26 06:15:00,
2013-02-26 08:20:00,60.3,58.6,30.00,West,263,0.0,25.0,94,0.00,,,0.00,Wunderground v.1.15,2013-02-26 06:20:00,
2013-02-26 08:25:00,60.4,58.7,30.00,West,263,0.0,25.0,94,0.00,,,0.00,Wunderground v.1.15,2013-02-26 06:25:00,
2013-02-26 08:35:00,60.5,58.8,30.00,NNE,18,0.0,25.0,94,0.00,,,0.00,Wunderground v.1.15,2013-02-26 06:35:00,
2013-02-26 08:40:00,60.2,58.5,30.00,NE,44,1.0,1.0,94,0.00,,,0.00,Wunderground v.1.15,2013-02-26 06:40:00,
2013-02-26 08:45:00,60.3,58.6,30.01,NE,44,0.0,25.0,94,0.00,,,0.00,Wunderground v.1.15,2013-02-26 06:45:00,
2013-02-26 08:50:00,60.4,58.7,30.00,NE,44,0.0,25.0,94,0.00,,,0.00,Wunderground v.1.15,2013-02-26 06:50:00,
2013-02-26 08:55:00,60.5,58.8,30.00,NE,43,0.0,25.0,94,0.00,,,0.00,Wunderground v.1.15,2013-02-26 06:55:00,
2013-02-26 09:00:00,60.5,58.8,30.01,NE,43,0.0,25.0,94,0.00,,,0.00,Wunderground v.1.15,2013-02-26 07:00:00,
2013-02-26 09:10:00,60.8,59.1,30.01,NE,38,0.0,25.0,94,0.00,,,0.00,Wunderground v.1.15,2013-02-26 07:10:00,
2013-02-26 09:15:00,60.8,59.1,30.01,NNE,24,1.0,25.0,94,0.00,,,0.00,Wunderground v.1.15,2013-02-26 07:15:00,
2013-02-26 09:20:00,60.8,58.8,30.01,NNE,12,2.0,25.0,93,0.00,,,0.00,Wunderground v.1.15,2013-02-26 07:20:00,
2013-02-26 09:25:00,60.5,58.5,30.01,North,351,3.0,25.0,93,0.00,,,0.00,Wunderground v.1.15,2013-02-26 07:25:00,
2013-02-26 09:30:00,60.5,58.5,30.01,North,360,4.0,4.0,93,0.00,,,0.00,Wunderground v.1.15,2013-02-26 07:30:00,
2013-02-26 09:40:00,60.5,58.2,30.01,North,5,4.0,4.0,92,0.00,,,0.00,Wunderground v.1.15,2013-02-26 07:40:00,
2013-02-26 09:45:00,60.5,58.2,30.01,North,5,3.0,25.0,92,0.00,,,0.00,Wunderground v.1.15,2013-02-26 07:45:00,
2013-02-26 09:50:00,60.9,58.3,30.01,NE,53,2.0,2.0,91,0.00,,,0.00,Wunderground v.1.15,2013-02-26 07:50:00,
2013-02-26 09:55:00,61.1,58.1,30.01,NNE,24,1.0,25.0,90,0.00,,,0.00,Wunderground v.1.15,2013-02-26 07:55:00,
2013-02-26 10:00:00,61.4,58.4,30.01,NNE,25,2.0,25.0,90,0.00,,,0.00,Wunderground v.1.15,2013-02-26 08:00:00,
2013-02-26 10:05:00,61.5,58.2,30.01,North,360,4.0,25.0,89,0.00,,,0.00,Wunderground v.1.15,2013-02-26 08:05:00,
2013-02-26 10:15:00,61.7,57.8,30.02,North,355,4.0,7.0,87,0.00,,,0.00,Wunderground v.1.15,2013-02-26 08:15:00,
2013-02-26 10:20:00,61.7,57.5,30.02,NNE,29,4.0,25.0,86,0.00,,,0.00,Wunderground v.1.15,2013-02-26 08:20:00,
2013-02-26 10:25:00,61.6,56.7,30.02,NE,56,5.0,25.0,84,0.00,,,0.00,Wunderground v.1.15,2013-02-26 08:25:00,
2013-02-26 10:30:00,61.7,56.5,30.02,NE,37,5.0,5.0,83,0.00,,,0.00,Wunderground v.1.15,2013-02-26 08:30:00,
2013-02-26 10:35:00,61.9,56.3,30.01,NNE,18,4.0,25.0,82,0.00,,,0.00,Wunderground v.1.15,2013-02-26 08:35:00,
2013-02-26 10:45:00,62.2,55.6,30.02,NE,34,5.0,25.0,79,0.00,,,0.00,Wunderground v.1.15,2013-02-26 08:45:00,
2013-02-26 10:50:00,62.4,55.1,30.02,NNE,14,5.0,5.0,77,0.00,,,0.00,Wunderground v.1.15,2013-02-26 08:50:00,
2013-02-26 10:55:00,62.6,54.9,30.02,NE,44,5.0,25.0,76,0.00,,,0.00,Wunderground v.1.15,2013-02-26 08:55:00,
2013-02-26 11:00:00,62.7,54.7,30.02,NNE,15,6.0,6.0,75,0.00,,,0.00,Wunderground v.1.15,2013-02-26 09:00:00,
2013-02-26 11:05:00,62.9,54.5,30.02,NE,45,6.0,9.0,74,0.00,,,0.00,Wunderground v.1.15,2013-02-26 09:05:00,
2013-02-26 11:10:00,63.1,54.7,30.02,North,5,6.0,25.0,74,0.00,,,0.00,Wunderground v.1.15,2013-02-26 09:10:00,
2013-02-26 11:20:00,63.3,54.9,30.02,North,9,6.0,6.0,74,0.00,,,0.00,Wunderground v.1.15,2013-02-26 09:20:00,
2013-02-26 11:25:00,63.5,54.7,30.01,NNE,29,5.0,10.0,73,0.00,,,0.00,Wunderground v.1.15,2013-02-26 09:25:00,
2013-02-26 11:30:00,63.6,54.8,30.01,North,355,5.0,25.0,73,0.00,,,0.00,Wunderground v.1.15,2013-02-26 09:30:00,
2013-02-26 11:35:00,63.6,54.4,30.01,NE,36,5.0,25.0,72,0.00,,,0.00,Wunderground v.1.15,2013-02-26 09:35:00,
2013-02-26 11:40:00,63.9,55.1,30.01,North,5,4.0,25.0,73,0.00,,,0.00,Wunderground v.1.15,2013-02-26 09:40:00,
2013-02-26 11:50:00,64.2,54.6,30.01,NE,47,4.0,4.0,71,0.00,,,0.00,Wunderground v.1.15,2013-02-26 09:50:00,
2013-02-26 11:55:00,64.5,54.9,30.01,North,349,4.0,5.0,71,0.00,,,0.00,Wunderground v.1.15,2013-02-26 09:55:00,
2013-02-26 12:00:00,64.5,54.9,30.01,North,10,5.0,5.0,71,0.00,,,0.00,Wunderground v.1.15,2013-02-26 10:00:00,
2013-02-26 12:05:00,64.7,54.7,30.01,NNE,18,5.0,6.0,70,0.00,,,0.00,Wunderground v.1.15,2013-02-26 10:05:00,
2013-02-26 12:10:00,64.8,54.8,30.01,NE,47,4.0,4.0,70,0.00,,,0.00,Wunderground v.1.15,2013-02-26 10:10:00,
2013-02-26 12:15:00,65.0,55.0,30.01,NNE,13,4.0,25.0,70,0.00,,,0.00,Wunderground v.1.15,2013-02-26 10:15:00,
2013-02-26 12:25:00,65.5,55.1,30.01,ENE,69,3.0,25.0,69,0.00,,,0.00,Wunderground v.1.15,2013-02-26 10:25:00,
2013-02-26 12:30:00,65.8,55.3,30.01,NNW,347,4.0,25.0,69,0.00,,,0.00,Wunderground v.1.15,2013-02-26 10:30:00,
2013-02-26 12:35:00,65.8,54.9,30.01,NW,315,3.0,25.0,68,0.00,,,0.00,Wunderground v.1.15,2013-02-26 10:35:00,
2013-02-26 12:40:00,65.9,55.8,30.01,NW,316,4.0,4.0,70,0.00,,,0.00,Wunderground v.1.15,2013-02-26 10:40:00,
2013-02-26 12:45:00,66.0,57.1,30.01,NW,313,3.0,25.0,73,0.00,,,0.00,Wunderground v.1.15,2013-02-26 10:45:00,
2013-02-26 12:55:00,65.5,56.6,30.01,NNW,334,3.0,25.0,73,0.00,,,0.00,Wunderground v.1.15,2013-02-26 10:55:00,
2013-02-26 13:00:00,65.5,56.6,30.01,NNE,18,3.0,3.0,73,0.00,,,0.00,Wunderground v.1.15,2013-02-26 11:00:00,
2013-02-26 13:05:00,65.5,56.6,30.01,NW,304,2.0,25.0,73,0.00,,,0.00,Wunderground v.1.15,2013-02-26 11:05:00,
2013-02-26 13:10:00,65.8,56.9,30.01,West,280,1.0,1.0,73,0.00,,,0.00,Wunderground v.1.15,2013-02-26 11:10:00,
2013-02-26 13:15:00,65.9,56.2,30.01,North,5,1.0,25.0,71,0.00,,,0.00,Wunderground v.1.15,2013-02-26 11:15:00,
2013-02-26 13:20:00,66.1,56.4,30.01,NNE,23,1.0,1.0,71,0.00,,,0.00,Wunderground v.1.15,2013-02-26 11:20:00,
2013-02-26 13:30:00,65.9,55.0,30.00,NNE,26,1.0,25.0,68,0.00,,,0.00,Wunderground v.1.15,2013-02-26 11:30:00,
2013-02-26 13:35:00,65.9,55.0,30.00,NNE,24,1.0,25.0,68,0.00,,,0.00,Wunderground v.1.15,2013-02-26 11:35:00,
2013-02-26 13:40:00,66.1,54.8,30.00,NE,52,1.0,25.0,67,0.00,,,0.00,Wunderground v.1.15,2013-02-26 11:40:00,
2013-02-26 13:45:00,66.3,54.6,30.00,NNW,340,2.0,25.0,66,0.00,,,0.00,Wunderground v.1.15,2013-02-26 11:45:00,
2013-02-26 13:50:00,66.5,54.4,30.00,NNE,23,3.0,3.0,65,0.00,,,0.00,Wunderground v.1.15,2013-02-26 11:50:00,
2013-02-26 14:00:00,66.4,53.4,30.00,North,351,5.0,25.0,63,0.00,,,0.00,Wunderground v.1.15,2013-02-26 12:00:00,
2013-02-26 14:05:00,66.2,53.2,30.00,NNE,30,5.0,25.0,63,0.00,,,0.00,Wunderground v.1.15,2013-02-26 12:05:00,
2013-02-26 14:10:00,66.3,53.3,30.00,NNE,19,4.0,25.0,63,0.00,,,0.00,Wunderground v.1.15,2013-02-26 12:10:00,
2013-02-26 14:15:00,66.3,53.3,30.00,NE,51,4.0,25.0,63,0.00,,,0.00,Wunderground v.1.15,2013-02-26 12:15:00,
2013-02-26 14:20:00,66.5,53.5,30.00,NNW,346,3.0,25.0,63,0.00,,,0.00,Wunderground v.1.15,2013-02-26 12:20:00,
2013-02-26 14:25:00,66.5,53.9,30.00,NNW,345,4.0,25.0,64,0.00,,,0.00,Wunderground v.1.15,2013-02-26 12:25:00,
2013-02-26 14:35:00,66.9,54.3,30.00,NNW,348,3.0,25.0,64,0.00,,,0.00,Wunderground v.1.15,2013-02-26 12:35:00,
2013-02-26 14:40:00,67.1,54.5,30.00,North,9,2.0,25.0,64,0.00,,,0.00,Wunderground v.1.15,2013-02-26 12:40:00,
2013-02-26 14:45:00,67.3,54.3,30.00,North,350,2.0,25.0,63,0.00,,,0.00,Wunderground v.1.15,2013-02-26 12:45:00,
2013-02-26 14:50:00,67.2,53.3,30.00,NNW,343,2.0,2.0,61,0.00,,,0.00,Wunderground v.1.15,2013-02-26 12:50:00,
2013-02-26 14:55:00,67.0,53.1,30.00,NW,315,2.0,25.0,61,0.00,,,0.00,Wunderground v.1.15,2013-02-26 12:55:00,
2013-02-26 15:00:00,66.7,52.8,30.00,NW,305,2.0,25.0,61,0.00,,,0.00,Wunderground v.1.15,2013-02-26 13:00:00,
2013-02-26 15:05:00,66.5,52.2,30.00,WNW,294,2.0,25.0,60,0.00,,,0.00,Wunderground v.1.15,2013-02-26 13:05:00,
2013-02-26 15:10:00,66.7,52.8,30.00,WNW,288,2.0,2.0,61,0.00,,,0.00,Wunderground v.1.15,2013-02-26 13:10:00,
2013-02-26 15:15:00,67.1,52.7,30.00,WNW,295,1.0,3.0,60,0.00,,,0.00,Wunderground v.1.15,2013-02-26 13:15:00,
2013-02-26 15:25:00,66.7,51.0,30.00,WNW,295,3.0,4.0,57,0.00,,,0.00,Wunderground v.1.15,2013-02-26 13:25:00,
2013-02-26 15:30:00,66.6,51.4,30.00,NW,314,3.0,3.0,58,0.00,,,0.00,Wunderground v.1.15,2013-02-26 13:30:00,
2013-02-26 15:40:00,67.5,54.9,30.00,WNW,284,2.0,25.0,64,0.00,,,0.00,Wunderground v.1.15,2013-02-26 13:40:00,
2013-02-26 15:45:00,67.0,56.1,30.00,NNW,334,4.0,25.0,68,0.00,,,0.00,Wunderground v.1.15,2013-02-26 13:45:00,
2013-02-26 15:50:00,65.8,55.7,30.00,WNW,289,4.0,4.0,70,0.00,,,0.00,Wunderground v.1.15,2013-02-26 13:50:00,
2013-02-26 15:55:00,65.3,56.0,29.99,West,275,4.0,9.0,72,0.00,,,0.00,Wunderground v.1.15,2013-02-26 13:55:00,
2013-02-26 16:00:00,64.8,55.9,29.99,WSW,253,4.0,25.0,73,0.00,,,0.00,Wunderground v.1.15,2013-02-26 14:00:00,
2013-02-26 16:05:00,64.5,55.7,29.99,West,279,5.0,25.0,73,0.00,,,0.00,Wunderground v.1.15,2013-02-26 14:05:00,
2013-02-26 16:15:00,63.6,55.9,29.99,West,275,7.0,25.0,76,0.00,,,0.00,Wunderground v.1.15,2013-02-26 14:15:00,
2013-02-26 16:20:00,63.2,55.9,29.99,WNW,292,7.0,25.0,77,0.00,,,0.00,Wunderground v.1.15,2013-02-26 14:20:00,
2013-02-26 16:25:00,62.8,55.5,29.99,NW,310,7.0,25.0,77,0.00,,,0.00,Wunderground v.1.15,2013-02-26 14:25:00,
2013-02-26 16:30:00,62.5,54.8,29.99,WNW,291,6.0,6.0,76,0.00,,,0.00,Wunderground v.1.15,2013-02-26 14:30:00,
2013-02-26 16:35:00,62.2,54.9,29.99,WSW,248,6.0,25.0,77,0.00,,,0.00,Wunderground v.1.15,2013-02-26 14:35:00,
2013-02-26 16:45:00,62.3,55.4,29.99,WNW,295,6.0,25.0,78,0.00,,,0.00,Wunderground v.1.15,2013-02-26 14:45:00,
2013-02-26 16:50:00,62.0,55.4,29.99,WNW,290,6.0,6.0,79,0.00,,,0.00,Wunderground v.1.15,2013-02-26 14:50:00,
2013-02-26 16:55:00,61.7,55.5,29.99,West,281,7.0,7.0,80,0.00,,,0.00,Wunderground v.1.15,2013-02-26 14:55:00,
2013-02-26 17:00:00,61.5,55.3,29.99,West,280,7.0,7.0,80,0.00,,,0.00,Wunderground v.1.15,2013-02-26 15:00:00,
2013-02-26 17:05:00,61.3,55.4,29.99,WNW,284,5.0,25.0,81,0.00,,,0.00,Wunderground v.1.15,2013-02-26 15:05:00,
2013-02-26 17:10:00,61.3,55.4,29.99,WNW,295,4.0,4.0,81,0.00,,,0.00,Wunderground v.1.15,2013-02-26 15:10:00,
2013-02-26 17:20:00,61.2,55.7,29.99,WNW,294,3.0,3.0,82,0.00,,,0.00,Wunderground v.1.15,2013-02-26 15:20:00,
2013-02-26 17:25:00,61.2,55.7,29.99,WNW,296,3.0,25.0,82,0.00,,,0.00,Wunderground v.1.15,2013-02-26 15:25:00,
2013-02-26 17:30:00,61.1,55.6,30.00,NW,304,2.0,25.0,82,0.00,,,0.00,Wunderground v.1.15,2013-02-26 15:30:00,
2013-02-26 17:35:00,61.0,55.5,30.00,WNW,288,2.0,25.0,82,0.00,,,0.00,Wunderground v.1.15,2013-02-26 15:35:00,
2013-02-26 17:40:00,60.9,55.4,30.00,WNW,293,2.0,2.0,82,0.00,,,0.00,Wunderground v.1.15,2013-02-26 15:40:00,
2013-02-26 17:50:00,60.8,55.3,30.00,NW,306,3.0,25.0,82,0.00,,,0.00,Wunderground v.1.15,2013-02-26 15:50:00,
2013-02-26 17:55:00,60.6,55.4,30.00,WNW,300,3.0,25.0,83,0.00,,,0.00,Wunderground v.1.15,2013-02-26 15:55:00,
2013-02-26 18:00:00,60.5,54.6,30.00,NNW,344,2.0,2.0,81,0.00,,,0.00,Wunderground v.1.15,2013-02-26 16:00:00,
2013-02-26 18:05:00,60.1,54.2,30.00,NNW,341,1.0,25.0,81,0.00,,,0.00,Wunderground v.1.15,2013-02-26 16:05:00,
2013-02-26 18:10:00,59.7,52.8,30.00,NE,41,1.0,25.0,78,0.00,,,0.00,Wunderground v.1.15,2013-02-26 16:10:00,
2013-02-26 18:15:00,59.6,51.7,30.00,North,355,4.0,25.0,75,0.00,,,0.00,Wunderground v.1.15,2013-02-26 16:15:00,
2013-02-26 18:25:00,60.0,51.3,30.01,NW,326,7.0,25.0,73,0.00,,,0.00,Wunderground v.1.15,2013-02-26 16:25:00,
2013-02-26 18:30:00,60.1,51.8,30.01,NNE,31,9.0,9.0,74,0.00,,,0.00,Wunderground v.1.15,2013-02-26 16:30:00,
2013-02-26 18:35:00,60.0,52.1,30.01,North,350,10.0,10.0,75,0.00,,,0.00,Wunderground v.1.15,2013-02-26 16:35:00,
2013-02-26 18:40:00,59.9,52.0,30.01,ENE,63,8.0,8.0,75,0.00,,,0.00,Wunderground v.1.15,2013-02-26 16:40:00,
2013-02-26 18:45:00,59.8,52.2,30.01,NE,41,8.0,25.0,76,0.00,,,0.00,Wunderground v.1.15,2013-02-26 16:45:00,
2013-02-26 18:55:00,58.9,51.0,30.01,North,9,9.0,25.0,75,0.00,,,0.00,Wunderground v.1.15,2013-02-26 16:55:00,
2013-02-26 19:00:00,58.5,51.0,30.01,NNE,23,10.0,10.0,76,0.00,,,0.00,Wunderground v.1.15,2013-02-26 17:00:00,
2013-02-26 19:05:00,58.1,50.6,30.01,NE,50,11.0,11.0,76,0.00,,,0.00,Wunderground v.1.15,2013-02-26 17:05:00,
2013-02-26 19:10:00,57.8,50.6,30.01,NE,55,11.0,11.0,77,0.00,,,0.00,Wunderground v.1.15,2013-02-26 17:10:00,
2013-02-26 19:15:00,57.7,50.5,30.02,NNE,33,8.0,25.0,77,0.00,,,0.00,Wunderground v.1.15,2013-02-26 17:15:00,
2013-02-26 19:20:00,57.6,50.4,30.02,NE,56,6.0,25.0,77,0.00,,,0.00,Wunderground v.1.15,2013-02-26 17:20:00,
2013-02-26 19:30:00,57.4,49.9,30.02,NE,47,8.0,8.0,76,0.00,,,0.00,Wunderground v.1.15,2013-02-26 17:30:00,
2013-02-26 19:35:00,57.3,50.1,30.02,NE,51,7.0,25.0,77,0.00,,,0.00,Wunderground v.1.15,2013-02-26 17:35:00,
2013-02-26 19:40:00,57.2,49.7,30.02,ENE,66,7.0,25.0,76,0.00,,,0.00,Wunderground v.1.15,2013-02-26 17:40:00,
2013-02-26 19:45:00,57.1,49.6,30.02,ENE,69,8.0,25.0,76,0.00,,,0.00,Wunderground v.1.15,2013-02-26 17:45:00,
2013-02-26 19:50:00,57.1,49.6,30.02,NE,51,9.0,25.0,76,0.00,,,0.00,Wunderground v.1.15,2013-02-26 17:50:00,
2013-02-26 20:00:00,57.3,49.4,30.02,NNE,33,10.0,25.0,75,0.00,,,0.00,Wunderground v.1.15,2013-02-26 18:00:00,
2013-02-26 20:05:00,57.3,49.1,30.02,NNE,14,11.0,25.0,74,0.00,,,0.00,Wunderground v.1.15,2013-02-26 18:05:00,
2013-02-26 20:10:00,57.4,48.8,30.02,NNE,13,12.0,12.0,73,0.00,,,0.00,Wunderground v.1.15,2013-02-26 18:10:00,
2013-02-26 20:15:00,57.3,49.1,30.03,NE,34,11.0,15.0,74,0.00,,,0.00,Wunderground v.1.15,2013-02-26 18:15:00,
2013-02-26 20:20:00,57.2,49.0,30.02,NE,49,10.0,10.0,74,0.00,,,0.00,Wunderground v.1.15,2013-02-26 18:20:00,
2013-02-26 20:25:00,57.2,49.0,30.03,North,360,9.0,11.0,74,0.00,,,0.00,Wunderground v.1.15,2013-02-26 18:25:00,
2013-02-26 20:35:00,57.0,49.2,30.03,NE,38,7.0,25.0,75,0.00,,,0.00,Wunderground v.1.15,2013-02-26 18:35:00,
2013-02-26 20:40:00,57.1,49.2,30.04,East,81,5.0,25.0,75,0.00,,,0.00,Wunderground v.1.15,2013-02-26 18:40:00,
2013-02-26 20:45:00,57.1,49.2,30.04,East,101,4.0,25.0,75,0.00,,,0.00,Wunderground v.1.15,2013-02-26 18:45:00,
2013-02-26 20:50:00,57.1,49.2,30.04,ENE,70,4.0,4.0,75,0.00,,,0.00,Wunderground v.1.15,2013-02-26 18:50:00,
2013-02-26 20:55:00,57.1,49.2,30.03,East,99,2.0,25.0,75,0.00,,,0.00,Wunderground v.1.15,2013-02-26 18:55:00,
2013-02-26 21:05:00,57.1,49.2,30.04,ENE,67,1.0,25.0,75,0.00,,,0.00,Wunderground v.1.15,2013-02-26 19:05:00,
2013-02-26 21:10:00,56.9,49.1,30.04,East,87,1.0,25.0,75,0.00,,,0.00,Wunderground v.1.15,2013-02-26 19:10:00,
2013-02-26 21:15:00,56.8,49.3,30.04,East,84,2.0,25.0,76,0.00,,,0.00,Wunderground v.1.15,2013-02-26 19:15:00,
2013-02-26 21:20:00,56.7,49.2,30.04,East,100,3.0,25.0,76,0.00,,,0.00,Wunderground v.1.15,2013-02-26 19:20:00,
2013-02-26 21:25:00,56.6,49.1,30.04,ESE,106,3.0,25.0,76,0.00,,,0.00,Wunderground v.1.15,2013-02-26 19:25:00,
2013-02-26 21:30:00,56.6,49.1,30.04,East,98,3.0,3.0,76,0.00,,,0.00,Wunderground v.1.15,2013-02-26 19:30:00,
2013-02-26 21:40:00,56.5,49.0,30.04,NNE,29,2.0,25.0,76,0.00,,,0.00,Wunderground v.1.15,2013-02-26 19:40:00,
2013-02-26 21:45:00,56.4,48.9,30.04,ENE,57,2.0,25.0,76,0.00,,,0.00,Wunderground v.1.15,2013-02-26 19:45:00,
2013-02-26 21:50:00,56.3,49.2,30.04,NE,56,1.0,1.0,77,0.00,,,0.00,Wunderground v.1.15,2013-02-26 19:50:00,
2013-02-26 21:55:00,56.2,48.7,30.04,NE,44,1.0,5.0,76,0.00,,,0.00,Wunderground v.1.15,2013-02-26 19:55:00,
2013-02-26 22:00:00,56.1,48.6,30.04,ENE,69,3.0,25.0,76,0.00,,,0.00,Wunderground v.1.15,2013-02-26 20:00:00,
2013-02-26 22:10:00,55.8,48.3,30.04,East,92,5.0,5.0,76,0.00,,,0.00,Wunderground v.1.15,2013-02-26 20:10:00,
2013-02-26 22:15:00,55.8,48.3,30.04,ENE,61,4.0,25.0,76,0.00,,,0.00,Wunderground v.1.15,2013-02-26 20:15:00,
2013-02-26 22:20:00,55.7,48.2,30.04,ENE,61,5.0,5.0,76,0.00,,,0.00,Wunderground v.1.15,2013-02-26 20:20:00,
2013-02-26 22:25:00,55.7,48.2,30.04,East,90,4.0,25.0,76,0.00,,,0.00,Wunderground v.1.15,2013-02-26 20:25:00,
2013-02-26 22:30:00,55.7,48.6,30.04,NNE,23,4.0,25.0,77,0.00,,,0.00,Wunderground v.1.15,2013-02-26 20:30:00,
2013-02-26 22:35:00,55.6,48.5,30.04,ENE,65,5.0,25.0,77,0.00,,,0.00,Wunderground v.1.15,2013-02-26 20:35:00,
2013-02-26 22:45:00,55.5,48.4,30.04,NNW,337,6.0,25.0,77,0.00,,,0.00,Wunderground v.1.15,2013-02-26 20:45:00,
2013-02-26 22:50:00,55.4,48.3,30.05,NNE,24,7.0,7.0,77,0.00,,,0.00,Wunderground v.1.15,2013-02-26 20:50:00,
2013-02-26 22:55:00,55.3,48.2,30.05,ESE,106,5.0,25.0,77,0.00,,,0.00,Wunderground v.1.15,2013-02-26 20:55:00,
2013-02-26 23:00:00,55.2,48.1,30.05,NE,41,4.0,4.0,77,0.00,,,0.00,Wunderground v.1.15,2013-02-26 21:00:00,
2013-02-26 23:05:00,55.1,48.0,30.05,NE,51,3.0,25.0,77,0.00,,,0.00,Wunderground v.1.15,2013-02-26 21:05:00,
2013-02-26 23:15:00,55.1,48.0,30.04,ENE,78,3.0,25.0,77,0.00,,,0.00,Wunderground v.1.15,2013-02-26 21:15:00,
2013-02-26 23:20:00,55.1,48.0,30.05,East,82,3.0,3.0,77,0.00,,,0.00,Wunderground v.1.15,2013-02-26 21:20:00,
2013-02-26 23:25:00,55.2,48.1,30.05,ENE,66,2.0,25.0,77,0.00,,,0.00,Wunderground v.1.15,2013-02-26 21:25:00,
2013-02-26 23:30:00,55.2,48.1,30.04,ENE,60,0.0,25.0,77,0.00,,,0.00,Wunderground v.1.15,2013-02-26 21:30:00,
2013-02-26 23:35:00,55.1,47.7,30.05,ENE,60,0.0,25.0,76,0.00,,,0.00,Wunderground v.1.15,2013-02-26 21:35:00,
2013-02-26 23:40:00,55.1,48.0,30.04,NNE,22,0.0,25.0,77,0.00,,,0.00,Wunderground v.1.15,2013-02-26 21:40:00,
2013-02-26 23:50:00,55.3,48.6,30.05,North,360,2.0,25.0,78,0.00,,,0.00,Wunderground v.1.15,2013-02-26 21:50:00,
2013-02-26 23:55:00,55.3,48.6,30.04,ENE,61,3.0,25.0,78,0.00,,,0.00,Wunderground v.1.15,2013-02-26 21:55:00,